Appleton, MN

7:11 AM CST on February 23, 2017 (GMT -0600)
Appleton Municipal

Weather History for KAQP - March, 2013

Change the Weather History Date:

Friday, March 15, 2013

  Actual Average Record
Temperature  
Mean Temperature 30 °F -  
Max Temperature 35 °F 32 °F 75 °F (2015)
Min Temperature 26 °F 16 °F -16 °F (1997)
Degree Days  
Heating Degree Days 34    
Moisture  
Dew Point 28 °F    
Average Humidity 90    
Maximum Humidity 100    
Minimum Humidity 81    
Precipitation  
Precipitation 0.00 in - - ()
Sea Level Pressure  
Sea Level Pressure 29.93 in    
Wind  
Wind Speed 9 mph (NNE)    
Max Wind Speed 17 mph    
Max Gust Speed -    
Visibility 5 miles    
Events Rain    
Averages and records for this station are not official NWS values.
T = Trace of Precipitation, MM = Missing Value Source: NWS Daily Summary

Daily Weather History Graph

Daily Weather History Graph

Search for Another Location

Airport or City:

Trip Planner

Search our weather history database for the weather conditions in past years. The results will help you decide how hot, cold, wet, or windy it might be!

Date:

Astronomy

Mar. 15, 2013 Rise Set
Actual Time 7:35 AM CDT 7:30 PM CDT
Civil Twilight 7:06 AM CDT 7:59 PM CDT
Nautical Twilight 6:32 AM CDT 8:34 PM CDT
Astronomical Twilight 5:57 AM CDT 9:09 PM CDT
Moon 9:14 AM CDT (3/15) 11:59 PM CDT (3/15)
Length of Visible Light 12h 53m
Length of Day
11h 54m
Waxing Crescent, 15% of the Moon is Illuminated
Mar 15
Waxing Crescent
Mar 19
First Quarter
Mar 27
Full
Apr 2
Last Quarter
Apr 10
New

Hourly Weather History & Observations

Time (CDT) Temp. Windchill Dew Point Humidity Pressure Visibility Wind Dir Wind Speed Gust Speed Precip Events Conditions
12:14 AM 26.6 °F 21.2 °F 24.8 °F 93% 30.01 in 5.0 mi NW 4.6 mph - N/A   Clear
12:33 AM 28.4 °F 23.3 °F 26.6 °F 93% 30.02 in 5.0 mi NNW 4.6 mph - N/A   Clear
12:53 AM 28.4 °F 21.2 °F 26.6 °F 93% 30.01 in 5.0 mi NNW 6.9 mph - N/A   Scattered Clouds
1:13 AM 30.2 °F 21.3 °F 28.4 °F 93% 30.01 in 7.0 mi NNW 10.4 mph - N/A   Mostly Cloudy
1:34 AM 30.2 °F 21.3 °F 28.4 °F 93% 30.02 in 7.0 mi NNW 10.4 mph - N/A   Mostly Cloudy
1:53 AM 30.2 °F 20.8 °F 26.6 °F 86% 30.02 in 5.0 mi NNW 11.5 mph - N/A   Overcast
2:13 AM 28.4 °F 17.5 °F 26.6 °F 93% 30.03 in 5.0 mi NNW 13.8 mph - N/A   Overcast
2:33 AM 26.6 °F 13.8 °F 24.8 °F 93% 30.02 in 7.0 mi North 17.3 mph - N/A   Overcast
2:53 AM 26.6 °F 14.7 °F 24.8 °F 93% 30.01 in 7.0 mi North 15.0 mph - N/A   Overcast
3:13 AM 26.6 °F 15.2 °F 23.0 °F 86% 30.00 in 7.0 mi North 13.8 mph - N/A   Mostly Cloudy
3:33 AM 26.6 °F 17.5 °F 24.8 °F 93% 29.99 in 7.0 mi North 9.2 mph - N/A   Scattered Clouds
3:53 AM 26.6 °F 17.5 °F 23.0 °F 86% 30.01 in 7.0 mi NW 9.2 mph - N/A   Mostly Cloudy
4:14 AM 26.6 °F 18.2 °F 23.0 °F 86% 30.01 in 7.0 mi WNW 8.1 mph - N/A   Overcast
4:34 AM 26.6 °F 22.6 °F 23.0 °F 86% 29.98 in 5.0 mi NNW 3.5 mph - N/A   Overcast
4:53 AM 26.6 °F 19.1 °F 23.0 °F 86% 29.97 in 7.0 mi NNW 6.9 mph - N/A   Overcast
5:14 AM 26.6 °F 18.2 °F 23.0 °F 86% 29.96 in 5.0 mi NNW 8.1 mph - N/A   Overcast
5:33 AM 26.6 °F 17.5 °F 23.0 °F 86% 29.96 in 7.0 mi North 9.2 mph - N/A   Mostly Cloudy
5:53 AM 26.6 °F 18.2 °F 23.0 °F 86% 29.94 in 5.0 mi North 8.1 mph - N/A   Scattered Clouds
6:13 AM 26.6 °F 17.5 °F 24.8 °F 93% 29.95 in 5.0 mi North 9.2 mph - N/A   Mostly Cloudy
6:34 AM 26.6 °F 17.5 °F 24.8 °F 93% 29.96 in 5.0 mi NNW 9.2 mph - N/A   Mostly Cloudy
6:53 AM 26.6 °F 18.2 °F 26.6 °F 100% 29.95 in 5.0 mi North 8.1 mph - N/A   Overcast
7:13 AM 28.4 °F 19.1 °F 26.6 °F 93% 29.95 in 4.0 mi North 10.4 mph - N/A   Overcast
7:34 AM 28.4 °F 19.7 °F 26.6 °F 93% 29.93 in 5.0 mi North 9.2 mph - N/A   Overcast
7:54 AM 28.4 °F 19.7 °F 26.6 °F 93% 29.93 in 4.0 mi North 9.2 mph - N/A   Mostly Cloudy
8:24 AM 28.4 °F 19.7 °F 26.6 °F 93% 29.94 in 2.5 mi NNW 9.2 mph - N/A   Overcast
8:33 AM 28.4 °F 19.7 °F 26.6 °F 93% 29.93 in 2.5 mi NNW 9.2 mph - N/A   Overcast
8:53 AM 30.2 °F 24.3 °F 28.4 °F 93% 29.92 in 2.5 mi North 5.8 mph - N/A   Overcast
9:13 AM 30.2 °F 22.6 °F 28.4 °F 93% 29.93 in 2.5 mi North 8.1 mph - N/A   Overcast
9:33 AM 30.2 °F 23.4 °F 28.4 °F 93% 29.94 in 2.5 mi NNW 6.9 mph - N/A   Overcast
9:53 AM 30.2 °F 22.6 °F 28.4 °F 93% 29.95 in 2.5 mi NNW 8.1 mph - N/A   Overcast
10:13 AM 32.0 °F 25.6 °F 30.2 °F 93% 29.95 in 2.0 mi NNW 6.9 mph - N/A   Overcast
10:33 AM 33.8 °F 25.8 °F 30.2 °F 87% 29.94 in 5.0 mi NNE 10.4 mph - N/A   Overcast
10:53 AM 33.8 °F 27.0 °F 30.2 °F 87% 29.92 in 5.0 mi NE 8.1 mph - N/A   Overcast
11:14 AM 33.8 °F 27.0 °F 30.2 °F 87% 29.92 in 5.0 mi NE 8.1 mph - N/A   Overcast
11:34 AM 33.8 °F 27.0 °F 30.2 °F 87% 29.92 in 5.0 mi NE 8.1 mph - N/A   Overcast
11:53 AM 33.8 °F 26.4 °F 30.2 °F 87% 29.93 in 5.0 mi NE 9.2 mph - N/A   Overcast
12:13 PM 33.8 °F 27.0 °F 30.2 °F 87% 29.92 in 5.0 mi NE 8.1 mph - N/A   Overcast
12:34 PM 35.6 °F 29.2 °F 30.2 °F 81% 29.92 in 5.0 mi NE 8.1 mph - N/A   Overcast
12:53 PM 33.8 °F 27.0 °F 30.2 °F 87% 29.91 in 7.0 mi ENE 8.1 mph - N/A   Overcast
1:13 PM 33.8 °F 25.3 °F 30.2 °F 87% 29.90 in 7.0 mi ENE 11.5 mph - N/A   Overcast
1:33 PM 33.8 °F 24.8 °F 30.2 °F 87% 29.89 in 7.0 mi ENE 12.7 mph - N/A   Overcast
1:53 PM 33.8 °F 25.8 °F 30.2 °F 87% 29.88 in 7.0 mi ENE 10.4 mph - N/A Rain Light Rain
2:13 PM 33.8 °F 26.4 °F 28.4 °F 81% 29.89 in 7.0 mi ENE 9.2 mph - N/A   Overcast
2:33 PM 33.8 °F 27.0 °F 28.4 °F 81% 29.89 in 7.0 mi East 8.1 mph - N/A   Overcast
2:53 PM 33.8 °F 25.8 °F 30.2 °F 87% 29.87 in 3.0 mi East 10.4 mph - N/A Rain Light Rain
3:14 PM 33.8 °F 27.7 °F 30.2 °F 87% 29.86 in 5.0 mi East 6.9 mph - N/A Rain Light Rain
3:34 PM 33.8 °F 27.7 °F 30.2 °F 87% 29.86 in 5.0 mi East 6.9 mph - N/A Rain Light Rain
3:53 PM 33.8 °F 27.0 °F 30.2 °F 87% 29.84 in 5.0 mi East 8.1 mph - N/A   Overcast
4:13 PM 35.6 °F 30.7 °F 30.2 °F 81% 29.85 in 5.0 mi East 5.8 mph - N/A   Overcast
4:33 PM 35.6 °F 29.2 °F 30.2 °F 81% 29.83 in 5.0 mi East 8.1 mph - N/A   Haze
4:53 PM 35.6 °F 28.6 °F 30.2 °F 81% 29.82 in 5.0 mi East 9.2 mph - N/A   Light Drizzle
5:14 PM 33.8 °F 27.0 °F 30.2 °F 87% 29.82 in 5.0 mi East 8.1 mph - N/A Rain Rain
5:33 PM 33.8 °F 27.0 °F 30.2 °F 87% 29.86 in 5.0 mi North 8.1 mph - N/A Rain Light Rain
5:53 PM 33.8 °F 27.0 °F 30.2 °F 87% 29.87 in 5.0 mi North 8.1 mph - N/A   Light Drizzle
6:13 PM 33.8 °F 26.4 °F 30.2 °F 87% 29.86 in 5.0 mi NNE 9.2 mph - N/A   Overcast
6:33 PM 33.8 °F 26.4 °F 30.2 °F 87% 29.86 in 3.0 mi NE 9.2 mph - N/A   Overcast
6:54 PM 32.0 °F 24.2 °F 30.2 °F 93% 29.86 in 2.0 mi NE 9.2 mph - N/A   Overcast
7:13 PM 32.0 °F 24.2 °F 30.2 °F 93% 29.86 in 1.5 mi NE 9.2 mph - N/A   Overcast
7:33 PM 32.0 °F 24.8 °F 30.2 °F 93% 29.86 in 2.5 mi NE 8.1 mph - N/A   Overcast
7:53 PM 30.2 °F 20.8 °F 30.2 °F 100% 29.88 in 1.8 mi NE 11.5 mph - N/A   Overcast
8:13 PM 30.2 °F 21.9 °F 30.2 °F 100% 29.89 in 1.5 mi NE 9.2 mph - N/A   Overcast
8:33 PM 30.2 °F 22.6 °F 30.2 °F 100% 29.90 in 2.0 mi NNE 8.1 mph - N/A   Overcast
8:54 PM 30.2 °F 21.9 °F 30.2 °F 100% 29.89 in 2.5 mi NE 9.2 mph - N/A   Overcast
9:13 PM 30.2 °F 22.6 °F 28.4 °F 93% 29.90 in 3.0 mi NE 8.1 mph - N/A   Overcast
9:34 PM 30.2 °F 21.3 °F 28.4 °F 93% 29.92 in 4.0 mi North 10.4 mph - N/A   Overcast
9:53 PM 30.2 °F 21.3 °F 28.4 °F 93% 29.92 in 4.0 mi North 10.4 mph - N/A   Overcast
10:13 PM 30.2 °F 19.8 °F 28.4 °F 93% 29.92 in 3.0 mi North 13.8 mph - N/A   Overcast
10:34 PM 30.2 °F 22.6 °F 28.4 °F 93% 29.93 in 4.0 mi NNE 8.1 mph - N/A   Overcast
10:53 PM 30.2 °F 21.3 °F 28.4 °F 93% 29.93 in 3.0 mi NNE 10.4 mph - N/A   Overcast
11:14 PM 28.4 °F 19.7 °F 26.6 °F 93% 29.94 in 3.0 mi NNE 9.2 mph - N/A   Overcast
11:33 PM 28.4 °F 18.5 °F 26.6 °F 93% 29.95 in 2.5 mi NNE 11.5 mph - N/A   Overcast
11:53 PM 28.4 °F 19.1 °F 26.6 °F 93% 29.96 in 2.0 mi North 10.4 mph - N/A   Overcast